Location: Franzen
(48.6167°N, 15.3833°E)
Time: 12:18:32
(UTC+00:00)

Lacrosse 5 rocket - Pass Details

Date: 22 April 2021
Orbit: 460 x 634 km, 57.0° (Epoch: 16 May)

Event Time Altitude Azimuth Distance (km) Brightness Sun altitude
Rises 19:02:48 0° 291° (WNW) 2,694 6.8 -10.1°
Reaches altitude 10° 19:05:15 10° 304° (NW) 1,835 5.6 -10.4°
Maximum altitude 19:08:47 26° 2° (N) 1,146 3.3 -10.9°
Drops below altitude 10° 19:12:30 10° 60° (ENE) 1,927 3.8 -11.4°
Enters shadow 19:14:26 - 71° (ENE) 2,600 4.4 -11.7°
